^^
Saratoga-Weather Station Historical Data
Daily Summary for July 26, 2020 Units:  English    Metric   Both
Daily Weekly Monthly Yearly Custom
  High: Low: Average:
Temperature: 52.9 °F 46.8 °F 49.1 °F
Dew Point: 47.1 °F 40.6 °F 44.8 °F
Humidity: 93% 71% 85%
Wind Speed: 17mph 0.9mph 7.8mph
Wind Gust: 24mph - -
Wind- - West
Pressure: 29.6 in 29.5 in -
Precipitation: 0.04 in    
Historical Graphs
 
 
Tabular Data for July 26, 2020
Time Temperature Dew Point Pressure Wind Wind Speed Wind Gust Humidity Rainfall Rate (Hourly) solar
00:03 48.9 °F 44.6 °F 29.6 in NW 6.9 mph 7 mph 85% 0 in 0 W/m2
00:08 48.7 °F 44.8 °F 29.6 in WNW 4.9 mph 13 mph 86% 0 in 0 W/m2
00:13 48.7 °F 44.8 °F 29.6 in West 6.9 mph 8 mph 86% 0 in 0 W/m2
00:18 48.6 °F 44.6 °F 29.6 in WNW 6 mph 13 mph 86% 0.01 in 0 W/m2
00:23 48.6 °F 44.8 °F 29.6 in WNW 8.9 mph 12 mph 87% 0.01 in 0 W/m2
00:28 48.6 °F 44.8 °F 29.6 in WSW 2.9 mph 9 mph 87% 0.01 in 0 W/m2
00:33 48.6 °F 44.8 °F 29.6 in West 6 mph 10 mph 87% 0.01 in 0 W/m2
00:38 48.6 °F 44.6 °F 29.6 in West 8.1 mph 13 mph 86% 0.01 in 0 W/m2
00:43 48.6 °F 44.8 °F 29.6 in WNW 8.9 mph 14 mph 87% 0.02 in 0 W/m2
00:48 48.6 °F 44.6 °F 29.6 in West 6 mph 10 mph 86% 0.02 in 0 W/m2
00:53 48.6 °F 44.6 °F 29.6 in West 10.1 mph 11 mph 86% 0.02 in 0 W/m2
00:58 48.6 °F 43.9 °F 29.6 in West 13 mph 15 mph 84% 0.02 in 0 W/m2
01:03 48.7 °F 44.1 °F 29.6 in West 13 mph 15 mph 84% 0.02 in 0 W/m2
01:08 48.9 °F 43.7 °F 29.6 in West 8.1 mph 13 mph 82% 0.02 in 0 W/m2
01:14 48.9 °F 43.3 °F 29.6 in WNW 4.9 mph 11 mph 81% 0.02 in 0 W/m2
01:19 48.9 °F 43.3 °F 29.6 in WSW 4.9 mph 9 mph 81% 0.01 in 0 W/m2
01:24 48.9 °F 43.3 °F 29.6 in WNW 4 mph 9 mph 81% 0.01 in 0 W/m2
01:29 48.9 °F 43.3 °F 29.6 in WSW 4 mph 10 mph 81% 0.01 in 0 W/m2
01:34 48.9 °F 43 °F 29.6 in WNW 4 mph 6 mph 80% 0.01 in 0 W/m2
01:39 48.9 °F 43 °F 29.6 in WNW 4 mph 10 mph 80% 0.01 in 0 W/m2
01:44 48.9 °F 43 °F 29.6 in WSW 4.9 mph 8 mph 80% 0 in 0 W/m2
01:49 48.9 °F 43.3 °F 29.6 in West 10.1 mph 10 mph 81% 0 in 0 W/m2
01:54 48.9 °F 43 °F 29.6 in West 2.9 mph 11 mph 80% 0 in 0 W/m2
01:59 49.1 °F 43.2 °F 29.6 in NW 4 mph 12 mph 80% 0 in 0 W/m2
02:04 48.9 °F 43 °F 29.6 in West 8.9 mph 15 mph 80% 0 in 0 W/m2
02:09 49.1 °F 42.8 °F 29.6 in West 11 mph 12 mph 79% 0 in 0 W/m2
02:14 49.3 °F 43 °F 29.6 in WSW 15 mph 15 mph 79% 0 in 0 W/m2
02:19 49.3 °F 42.8 °F 29.6 in WNW 6.9 mph 11 mph 78% 0 in 0 W/m2
02:24 49.3 °F 42.4 °F 29.6 in West 6.9 mph 9 mph 77% 0 in 0 W/m2
02:29 49.3 °F 42.4 °F 29.6 in West 4 mph 10 mph 77% 0 in 0 W/m2
02:34 49.3 °F 42.1 °F 29.6 in WNW 13 mph 16 mph 76% 0 in 0 W/m2
02:39 49.3 °F 41.7 °F 29.6 in NW 8.1 mph 14 mph 75% 0 in 0 W/m2
02:44 49.5 °F 41.5 °F 29.6 in WNW 8.1 mph 12 mph 74% 0 in 0 W/m2
02:49 49.5 °F 41.5 °F 29.6 in WNW 13 mph 14 mph 74% 0 in 0 W/m2
02:54 49.6 °F 41 °F 29.6 in West 6 mph 12 mph 72% 0 in 0 W/m2
02:59 49.6 °F 41 °F 29.6 in WNW 6.9 mph 9 mph 72% 0 in 0 W/m2
03:04 49.6 °F 41 °F 29.6 in WNW 13 mph 13 mph 72% 0 in 0 W/m2
03:09 49.6 °F 41 °F 29.6 in WNW 6.9 mph 17 mph 72% 0 in 0 W/m2
03:14 49.6 °F 41 °F 29.6 in NNW 2 mph 13 mph 72% 0 in 0 W/m2
03:19 49.6 °F 41 °F 29.6 in WNW 4 mph 17 mph 72% 0 in 0 W/m2
03:24 49.6 °F 41 °F 29.6 in WSW 8.9 mph 13 mph 72% 0 in 0 W/m2
03:29 49.6 °F 40.6 °F 29.5 in WNW 2 mph 12 mph 71% 0 in 0 W/m2
03:34 49.6 °F 41 °F 29.6 in WNW 4 mph 13 mph 72% 0 in 0 W/m2
03:39 49.6 °F 41 °F 29.6 in South 4.9 mph 11 mph 72% 0 in 0 W/m2
03:44 49.6 °F 41 °F 29.5 in SW 4 mph 9 mph 72% 0 in 0 W/m2
03:49 49.6 °F 41 °F 29.5 in West 6.9 mph 12 mph 72% 0 in 0 W/m2
03:54 49.5 °F 40.8 °F 29.5 in West 10.1 mph 13 mph 72% 0 in 0 W/m2
03:59 49.5 °F 41.2 °F 29.5 in West 2.9 mph 10 mph 73% 0 in 0 W/m2
04:04 49.5 °F 41.2 °F 29.5 in West 6 mph 16 mph 73% 0 in 0 W/m2
04:09 49.5 °F 41.2 °F 29.5 in WNW 4 mph 12 mph 73% 0 in 0 W/m2
04:14 49.3 °F 41 °F 29.5 in North 10.1 mph 18 mph 73% 0 in 0 W/m2
04:19 49.3 °F 41.4 °F 29.5 in WSW 4 mph 9 mph 74% 0 in 0 W/m2
04:24 49.3 °F 41.4 °F 29.5 in SW 6.9 mph 18 mph 74% 0 in 0 W/m2
04:29 49.1 °F 41.5 °F 29.5 in WNW 6.9 mph 14 mph 75% 0 in 0 W/m2
04:34 48.9 °F 41.4 °F 29.5 in WSW 11 mph 11 mph 75% 0 in 0 W/m2
04:39 48.9 °F 41.7 °F 29.5 in NW 4 mph 15 mph 76% 0 in 0 W/m2
04:44 48.7 °F 41.9 °F 29.5 in WSW 4.9 mph 12 mph 77% 0 in 0 W/m2
04:49 48.6 °F 42.1 °F 29.5 in WSW 8.9 mph 20 mph 78% 0 in 0 W/m2
04:54 48.2 °F 42.3 °F 29.5 in WNW 4.9 mph 16 mph 80% 0 in 0 W/m2
04:59 47.8 °F 42.6 °F 29.5 in West 8.1 mph 20 mph 82% 0 in 0 W/m2
05:04 47.7 °F 42.8 °F 29.5 in West 4 mph 17 mph 83% 0 in 0 W/m2
05:09 47.5 °F 42.6 °F 29.5 in WSW 4.9 mph 12 mph 83% 0 in 0 W/m2
05:14 47.5 °F 42.8 °F 29.5 in West 6 mph 17 mph 84% 0 in 0 W/m2
05:19 47.5 °F 42.8 °F 29.5 in SW 6 mph 13 mph 84% 0 in 0 W/m2
05:24 47.5 °F 42.8 °F 29.5 in WNW 11 mph 14 mph 84% 0 in 0 W/m2
05:30 47.7 °F 42.8 °F 29.5 in WNW 10.1 mph 12 mph 83% 0 in 0 W/m2
05:35 47.7 °F 42.8 °F 29.5 in WSW 12.1 mph 17 mph 83% 0 in 0 W/m2
05:40 47.7 °F 43 °F 29.5 in WSW 14.1 mph 14 mph 84% 0 in 0 W/m2
05:45 47.8 °F 43.2 °F 29.5 in WSW 4 mph 18 mph 84% 0 in 0 W/m2
05:50 47.8 °F 43 °F 29.5 in WSW 12.1 mph 14 mph 83% 0 in 0 W/m2
05:55 47.8 °F 43 °F 29.5 in NW 6.9 mph 12 mph 83% 0 in 0 W/m2
06:00 47.8 °F 43 °F 29.5 in NW 4 mph 12 mph 83% 0 in 0 W/m2
06:05 47.8 °F 43 °F 29.5 in NW 4.9 mph 13 mph 83% 0 in 0 W/m2
06:10 48 °F 43.2 °F 29.5 in WNW 2.9 mph 15 mph 83% 0 in 0 W/m2
06:15 48 °F 43.2 °F 29.5 in WNW 8.9 mph 9 mph 83% 0 in 0 W/m2
06:20 48.2 °F 43 °F 29.5 in WNW 8.9 mph 14 mph 82% 0 in 0 W/m2
06:25 48.4 °F 43.2 °F 29.5 in West 10.1 mph 12 mph 82% 0 in 0 W/m2
06:30 48.4 °F 43.2 °F 29.5 in West 6 mph 15 mph 82% 0 in 0 W/m2
06:35 48.4 °F 43.2 °F 29.5 in NNW 10.1 mph 13 mph 82% 0 in 0 W/m2
06:40 48.2 °F 43.3 °F 29.5 in NW 2.9 mph 12 mph 83% 0 in 0 W/m2
06:45 48 °F 43.2 °F 29.5 in West 8.1 mph 16 mph 83% 0 in 0 W/m2
06:50 48 °F 43.3 °F 29.5 in SW 6 mph 18 mph 84% 0 in 0 W/m2
06:55 47.8 °F 43.2 °F 29.5 in NW 8.9 mph 14 mph 84% 0 in 0 W/m2
07:00 47.8 °F 43.5 °F 29.5 in WSW 8.1 mph 18 mph 85% 0.01 in 0 W/m2
07:05 47.8 °F 43.5 °F 29.5 in WNW 4.9 mph 14 mph 85% 0.01 in 0 W/m2
07:10 47.8 °F 43.2 °F 29.5 in WNW 4.9 mph 17 mph 84% 0.01 in 0 W/m2
07:15 48 °F 43.3 °F 29.5 in West 10.1 mph 15 mph 84% 0.01 in 0 W/m2
07:20 48 °F 43.3 °F 29.5 in WNW 2.9 mph 14 mph 84% 0.01 in 0 W/m2
07:25 48 °F 43.3 °F 29.5 in WNW 8.9 mph 12 mph 84% 0.01 in 0 W/m2
07:30 48 °F 43.3 °F 29.5 in West 8.9 mph 15 mph 84% 0.01 in 0 W/m2
07:35 48.2 °F 43.3 °F 29.5 in West 11 mph 17 mph 83% 0.01 in 0 W/m2
07:40 48.4 °F 43.2 °F 29.5 in WNW 8.1 mph 13 mph 82% 0.01 in 0 W/m2
07:45 48.6 °F 43.3 °F 29.5 in WNW 8.9 mph 15 mph 82% 0.01 in 0 W/m2
07:50 48.4 °F 43.2 °F 29.5 in West 8.9 mph 16 mph 82% 0.01 in 7 W/m2
07:55 48.4 °F 43.5 °F 29.5 in West 8.1 mph 14 mph 83% 0.01 in 9 W/m2
08:00 48.2 °F 43.3 °F 29.5 in WSW 12.1 mph 15 mph 83% 0 in 7 W/m2
08:05 48 °F 43.3 °F 29.5 in WSW 10.1 mph 14 mph 84% 0 in 11 W/m2
08:10 48 °F 43.3 °F 29.5 in West 8.1 mph 11 mph 84% 0 in 12 W/m2
08:15 48 °F 43.3 °F 29.5 in West 8.1 mph 13 mph 84% 0 in 12 W/m2
08:20 48 °F 43.3 °F 29.5 in WSW 8.9 mph 14 mph 84% 0 in 19 W/m2
08:25 47.8 °F 43.5 °F 29.5 in SW 11 mph 18 mph 85% 0 in 18 W/m2
08:30 47.8 °F 43.5 °F 29.5 in WNW 10.1 mph 19 mph 85% 0 in 19 W/m2
08:35 47.7 °F 43.7 °F 29.5 in NW 11 mph 12 mph 86% 0 in 21 W/m2
08:40 47.5 °F 43.9 °F 29.5 in West 14.1 mph 17 mph 87% 0 in 26 W/m2
08:45 47.5 °F 43.9 °F 29.5 in WNW 8.9 mph 16 mph 87% 0 in 28 W/m2
08:50 47.3 °F 43.9 °F 29.5 in WSW 10.1 mph 14 mph 88% 0 in 26 W/m2
08:55 47.1 °F 43.7 °F 29.5 in WSW 11 mph 13 mph 88% 0.01 in 46 W/m2
09:00 47.1 °F 44.1 °F 29.5 in WNW 14.1 mph 15 mph 89% 0.01 in 44 W/m2
09:05 46.9 °F 43.9 °F 29.5 in West 11 mph 21 mph 89% 0.01 in 40 W/m2
09:10 46.9 °F 43.9 °F 29.5 in West 11 mph 13 mph 89% 0.01 in 33 W/m2
09:15 46.8 °F 44.1 °F 29.5 in NNW 6 mph 17 mph 90% 0.01 in 23 W/m2
09:20 46.8 °F 44.1 °F 29.5 in WSW 4 mph 14 mph 90% 0.01 in 33 W/m2
09:25 46.8 °F 44.1 °F 29.5 in WNW 13 mph 17 mph 90% 0.01 in 51 W/m2
09:30 46.9 °F 43.9 °F 29.5 in WSW 4.9 mph 15 mph 89% 0.01 in 46 W/m2
09:35 46.9 °F 43.9 °F 29.5 in West 10.1 mph 15 mph 89% 0.01 in 128 W/m2
09:40 47.1 °F 44.1 °F 29.5 in WNW 4.9 mph 19 mph 89% 0.01 in 144 W/m2
09:45 47.1 °F 44.4 °F 29.5 in WNW 10.1 mph 20 mph 90% 0.01 in 134 W/m2
09:50 47.1 °F 44.4 °F 29.5 in West 11 mph 15 mph 90% 0.01 in 167 W/m2
09:55 47.1 °F 44.4 °F 29.5 in WNW 12.1 mph 20 mph 90% 0 in 142 W/m2
10:00 47.1 °F 44.4 °F 29.5 in WNW 4.9 mph 13 mph 90% 0 in 172 W/m2
10:05 47.1 °F 44.4 °F 29.5 in West 6 mph 18 mph 90% 0 in 155 W/m2
10:10 47.1 °F 44.4 °F 29.5 in West 8.9 mph 17 mph 90% 0 in 121 W/m2
10:15 47.1 °F 44.4 °F 29.5 in West 6.9 mph 11 mph 90% 0 in 153 W/m2
10:20 47.1 °F 44.6 °F 29.5 in West 10.1 mph 15 mph 91% 0.01 in 167 W/m2
10:25 47.3 °F 44.8 °F 29.5 in West 6 mph 14 mph 91% 0.01 in 193 W/m2
10:30 47.5 °F 45 °F 29.5 in WSW 6.9 mph 14 mph 91% 0.01 in 174 W/m2
10:35 47.5 °F 44.8 °F 29.5 in West 6 mph 20 mph 90% 0.01 in 98 W/m2
10:40 47.5 °F 44.8 °F 29.5 in West 13 mph 14 mph 90% 0.01 in 47 W/m2
10:45 47.5 °F 44.4 °F 29.5 in WSW 16.1 mph 20 mph 89% 0.01 in 193 W/m2
10:50 47.7 °F 44.6 °F 29.5 in WSW 15 mph 19 mph 89% 0.01 in 193 W/m2
10:55 47.8 °F 44.8 °F 29.5 in WSW 8.9 mph 11 mph 89% 0.01 in 185 W/m2
11:00 47.8 °F 44.4 °F 29.5 in West 6 mph 19 mph 88% 0.01 in 153 W/m2
11:05 48 °F 45 °F 29.5 in WSW 16.1 mph 16 mph 89% 0.01 in 174 W/m2
11:10 48 °F 44.6 °F 29.5 in West 15 mph 15 mph 88% 0.01 in 255 W/m2
11:15 48.4 °F 44.8 °F 29.5 in NW 13 mph 21 mph 87% 0.01 in 276 W/m2
11:20 48.7 °F 45.3 °F 29.5 in West 8.1 mph 13 mph 88% 0 in 258 W/m2
11:25 48.9 °F 45 °F 29.5 in West 6.9 mph 23 mph 86% 0 in 297 W/m2
11:30 49.1 °F 45.1 °F 29.5 in West 6 mph 16 mph 86% 0 in 325 W/m2
11:35 49.3 °F 45.3 °F 29.5 in WNW 8.1 mph 19 mph 86% 0 in 206 W/m2
11:40 49.3 °F 45.3 °F 29.5 in WNW 15 mph 17 mph 86% 0 in 257 W/m2
11:45 49.5 °F 45.5 °F 29.5 in WNW 16.1 mph 21 mph 86% 0 in 731 W/m2
11:50 50.2 °F 46.2 °F 29.5 in West 15 mph 17 mph 86% 0 in 656 W/m2
11:55 50 °F 45.7 °F 29.5 in WNW 12.1 mph 20 mph 85% 0 in 548 W/m2
12:00 50.2 °F 45.9 °F 29.5 in West 10.1 mph 23 mph 85% 0 in 309 W/m2
12:05 50.2 °F 45.9 °F 29.5 in West 16.1 mph 17 mph 85% 0 in 513 W/m2
12:10 50.2 °F 45.9 °F 29.5 in NW 11 mph 23 mph 85% 0 in 513 W/m2
12:15 50.5 °F 46.2 °F 29.5 in NW 8.1 mph 15 mph 85% 0 in 513 W/m2
12:20 50.7 °F 45.7 °F 29.5 in WSW 14.1 mph 15 mph 83% 0 in 513 W/m2
12:25 51.1 °F 45.9 °F 29.5 in WSW 10.1 mph 22 mph 82% 0 in 578 W/m2
12:30 51.1 °F 45.9 °F 29.5 in WNW 11 mph 19 mph 82% 0 in 668 W/m2
12:35 51.1 °F 45.9 °F 29.5 in WNW 8.9 mph 22 mph 82% 0 in 410 W/m2
12:40 50.9 °F 45.7 °F 29.5 in WSW 10.1 mph 17 mph 82% 0 in 378 W/m2
12:45 50.9 °F 45.7 °F 29.5 in WSW 13 mph 20 mph 82% 0 in 499 W/m2
12:50 50.9 °F 45.7 °F 29.5 in WNW 10.1 mph 18 mph 82% 0 in 561 W/m2
12:55 51.1 °F 45.9 °F 29.5 in West 11 mph 15 mph 82% 0 in 236 W/m2
13:00 50.7 °F 45.5 °F 29.5 in WNW 14.1 mph 21 mph 82% 0 in 237 W/m2
13:05 50.7 °F 45.7 °F 29.5 in West 14.1 mph 14 mph 83% 0 in 214 W/m2
13:10 50.5 °F 45.5 °F 29.5 in SW 6.9 mph 11 mph 83% 0 in 188 W/m2
13:15 50.4 °F 45.7 °F 29.5 in WNW 12.1 mph 16 mph 84% 0 in 369 W/m2
13:20 50.5 °F 46.2 °F 29.5 in West 8.1 mph 11 mph 85% 0 in 369 W/m2
13:25 50.7 °F 45.7 °F 29.5 in West 10.1 mph 17 mph 83% 0 in 193 W/m2
13:30 50.7 °F 45.7 °F 29.5 in NNW 6 mph 13 mph 83% 0 in 227 W/m2
13:35 50.5 °F 45.5 °F 29.5 in SW 15 mph 21 mph 83% 0 in 223 W/m2
13:40 50.5 °F 45.5 °F 29.5 in West 8.9 mph 15 mph 83% 0 in 181 W/m2
13:45 50.5 °F 45.5 °F 29.5 in WSW 13 mph 21 mph 83% 0 in 160 W/m2
13:50 50.4 °F 45.3 °F 29.6 in WNW 6.9 mph 14 mph 83% 0 in 137 W/m2
13:55 50.4 °F 45.3 °F 29.6 in WNW 8.9 mph 20 mph 83% 0 in 84 W/m2
14:00 50.2 °F 45.1 °F 29.6 in WNW 4.9 mph 17 mph 83% 0 in 102 W/m2
14:05 50 °F 45 °F 29.6 in West 6.9 mph 10 mph 83% 0 in 95 W/m2
14:10 50.2 °F 45.1 °F 29.6 in WSW 8.9 mph 20 mph 83% 0 in 214 W/m2
14:15 50.5 °F 45.5 °F 29.6 in West 6.9 mph 12 mph 83% 0 in 248 W/m2
14:20 50.7 °F 45.5 °F 29.6 in West 17 mph 19 mph 82% 0 in 193 W/m2
14:25 50.9 °F 45.7 °F 29.6 in WSW 8.1 mph 15 mph 82% 0 in 315 W/m2
14:30 51.3 °F 46 °F 29.5 in WNW 2.9 mph 11 mph 82% 0 in 635 W/m2
14:35 52 °F 46.4 °F 29.5 in WSW 12.1 mph 15 mph 81% 0 in 652 W/m2
14:40 52.3 °F 46 °F 29.6 in West 8.1 mph 21 mph 79% 0 in 652 W/m2
14:45 52.3 °F 46 °F 29.6 in WNW 14.1 mph 15 mph 79% 0 in 278 W/m2
14:50 52.2 °F 45.9 °F 29.6 in NW 10.1 mph 21 mph 79% 0 in 264 W/m2
14:55 52.3 °F 46 °F 29.6 in West 15 mph 17 mph 79% 0 in 504 W/m2
15:00 52.5 °F 45.9 °F 29.6 in WSW 8.9 mph 20 mph 78% 0 in 622 W/m2
15:05 52.5 °F 45.5 °F 29.6 in West 15 mph 19 mph 77% 0 in 656 W/m2
15:10 52.3 °F 45 °F 29.6 in NW 8.1 mph 24 mph 76% 0 in 236 W/m2
15:15 52.5 °F 45.5 °F 29.6 in WNW 12.1 mph 15 mph 77% 0 in 647 W/m2
15:20 52.9 °F 45.9 °F 29.6 in NW 2 mph 24 mph 77% 0 in 253 W/m2
15:25 52.2 °F 45.1 °F 29.6 in West 8.1 mph 15 mph 77% 0 in 130 W/m2
15:30 52 °F 45.7 °F 29.5 in WNW 10.1 mph 14 mph 79% 0 in 281 W/m2
15:35 52 °F 45.7 °F 29.5 in NW 8.1 mph 10 mph 79% 0 in 248 W/m2
15:40 52.3 °F 46.4 °F 29.5 in West 8.1 mph 13 mph 80% 0 in 272 W/m2
15:45 52 °F 46.4 °F 29.5 in West 10.1 mph 14 mph 81% 0 in 167 W/m2
15:50 51.6 °F 46.2 °F 29.5 in West 14.1 mph 19 mph 82% 0 in 183 W/m2
15:55 51.3 °F 46.2 °F 29.6 in West 8.9 mph 18 mph 83% 0 in 192 W/m2
16:00 50.7 °F 46.4 °F 29.6 in West 10.1 mph 18 mph 85% 0 in 72 W/m2
16:05 50.4 °F 46.4 °F 29.6 in WSW 4.9 mph 18 mph 86% 0 in 70 W/m2
16:10 50 °F 46.2 °F 29.6 in WNW 6.9 mph 14 mph 87% 0 in 104 W/m2
16:15 49.8 °F 46.4 °F 29.6 in NW 8.9 mph 14 mph 88% 0 in 171 W/m2
16:20 49.8 °F 46.8 °F 29.6 in WNW 11 mph 11 mph 89% 0 in 251 W/m2
16:25 49.8 °F 46.8 °F 29.6 in NW 4.9 mph 15 mph 89% 0 in 214 W/m2
16:30 50.2 °F 47.1 °F 29.6 in WSW 8.9 mph 15 mph 89% 0 in 142 W/m2
16:35 50.2 °F 46.8 °F 29.6 in WNW 8.9 mph 14 mph 88% 0 in 113 W/m2
16:40 50.2 °F 46.4 °F 29.6 in West 8.9 mph 15 mph 87% 0 in 84 W/m2
16:45 50.4 °F 46.4 °F 29.6 in West 6 mph 12 mph 86% 0 in 81 W/m2
16:50 50.4 °F 46.4 °F 29.6 in WNW 4 mph 9 mph 86% 0 in 84 W/m2
16:55 50.4 °F 46.4 °F 29.6 in NNW 4.9 mph 14 mph 86% 0 in 118 W/m2
17:00 50.2 °F 46.4 °F 29.6 in WSW 4 mph 19 mph 87% 0 in 84 W/m2
17:05 49.8 °F 46.4 °F 29.6 in WSW 4.9 mph 13 mph 88% 0 in 74 W/m2
17:10 49.8 °F 46.4 °F 29.6 in WNW 4 mph 10 mph 88% 0 in 53 W/m2
17:15 49.8 °F 46.4 °F 29.6 in WSW 4.9 mph 10 mph 88% 0 in 77 W/m2
17:20 49.8 °F 46.4 °F 29.6 in West 6 mph 12 mph 88% 0 in 70 W/m2
17:25 49.8 °F 46 °F 29.6 in West 6 mph 10 mph 87% 0 in 76 W/m2
17:30 50 °F 46.2 °F 29.6 in West 6 mph 11 mph 87% 0 in 74 W/m2
17:35 50.2 °F 46.4 °F 29.6 in WNW 10.1 mph 10 mph 87% 0 in 54 W/m2
17:40 50.4 °F 46.4 °F 29.6 in WNW 6.9 mph 15 mph 86% 0 in 63 W/m2
17:45 50.2 °F 46.4 °F 29.6 in NW 10.1 mph 15 mph 87% 0 in 54 W/m2
17:50 50.2 °F 46.4 °F 29.6 in West 4 mph 12 mph 87% 0 in 37 W/m2
17:55 49.8 °F 46.4 °F 29.6 in West 6 mph 12 mph 88% 0 in 40 W/m2
18:00 49.6 °F 46.6 °F 29.6 in West 4 mph 8 mph 89% 0 in 40 W/m2
18:05 49.5 °F 46.6 °F 29.6 in West 4 mph 12 mph 90% 0 in 65 W/m2
18:10 49.5 °F 46.6 °F 29.6 in West 6 mph 10 mph 90% 0 in 70 W/m2
18:15 49.5 °F 46.6 °F 29.6 in West 4 mph 10 mph 90% 0 in 63 W/m2
18:21 49.5 °F 46.6 °F 29.6 in WNW 6.9 mph 13 mph 90% 0 in 65 W/m2
18:26 49.5 °F 46.6 °F 29.6 in WSW 6.9 mph 13 mph 90% 0 in 54 W/m2
18:31 49.5 °F 46.4 °F 29.6 in WSW 8.9 mph 13 mph 89% 0 in 39 W/m2
18:36 49.6 °F 46.6 °F 29.6 in SW 6 mph 14 mph 89% 0 in 35 W/m2
18:41 49.5 °F 46.4 °F 29.6 in WSW 10.1 mph 12 mph 89% 0 in 42 W/m2
18:46 49.5 °F 46.4 °F 29.6 in West 8.9 mph 12 mph 89% 0 in 26 W/m2
18:51 49.5 °F 46.6 °F 29.6 in WSW 8.1 mph 12 mph 90% 0 in 26 W/m2
18:56 49.3 °F 46.4 °F 29.6 in WNW 8.1 mph 8 mph 90% 0 in 25 W/m2
19:01 49.3 °F 46.4 °F 29.6 in West 10.1 mph 17 mph 90% 0 in 19 W/m2
19:06 49.3 °F 46.4 °F 29.6 in WNW 6.9 mph 14 mph 90% 0 in 14 W/m2
19:11 49.3 °F 46.4 °F 29.6 in WNW 8.9 mph 17 mph 90% 0 in 7 W/m2
19:16 49.3 °F 46.4 °F 29.6 in West 6.9 mph 9 mph 90% 0 in 7 W/m2
19:21 49.3 °F 46.4 °F 29.6 in WNW 8.1 mph 11 mph 90% 0 in 5 W/m2
19:26 49.3 °F 46.2 °F 29.6 in WNW 6 mph 10 mph 89% 0 in 0 W/m2
19:31 49.3 °F 46.4 °F 29.6 in SW 4.9 mph 11 mph 90% 0 in 0 W/m2
19:36 49.3 °F 46.2 °F 29.6 in WNW 2.9 mph 9 mph 89% 0 in 0 W/m2
19:41 49.3 °F 46.2 °F 29.6 in WNW 4.9 mph 11 mph 89% 0 in 0 W/m2
19:46 49.3 °F 46.2 °F 29.6 in West 4 mph 8 mph 89% 0 in 0 W/m2
19:51 49.3 °F 46.2 °F 29.6 in West 4 mph 9 mph 89% 0 in 0 W/m2
19:56 49.3 °F 46.4 °F 29.6 in WNW 10.1 mph 11 mph 90% 0 in 0 W/m2
20:01 49.3 °F 46.4 °F 29.6 in West 4 mph 7 mph 90% 0 in 0 W/m2
20:06 49.1 °F 46.2 °F 29.6 in WSW 6.9 mph 10 mph 90% 0 in 0 W/m2
20:11 49.1 °F 46.6 °F 29.6 in WSW 4.9 mph 11 mph 91% 0 in 0 W/m2
20:16 49.1 °F 46.6 °F 29.6 in West 6 mph 10 mph 91% 0 in 0 W/m2
20:21 48.9 °F 46.4 °F 29.6 in West 6.9 mph 9 mph 91% 0 in 0 W/m2
20:26 48.9 °F 46.4 °F 29.6 in NW 6 mph 11 mph 91% 0 in 0 W/m2
20:31 48.7 °F 46.2 °F 29.6 in West 4 mph 11 mph 91% 0 in 0 W/m2
20:36 48.7 °F 46.2 °F 29.6 in West 6 mph 12 mph 91% 0 in 0 W/m2
20:41 48.7 °F 46.2 °F 29.6 in NW 4.9 mph 11 mph 91% 0 in 0 W/m2
20:46 48.7 °F 46.2 °F 29.6 in West 6.9 mph 11 mph 91% 0 in 0 W/m2
20:51 48.7 °F 46.2 °F 29.6 in WSW 8.1 mph 11 mph 91% 0 in 0 W/m2
20:56 48.7 °F 46.2 °F 29.6 in WNW 4 mph 10 mph 91% 0 in 0 W/m2
21:01 48.7 °F 46.2 °F 29.6 in NW 4.9 mph 9 mph 91% 0 in 0 W/m2
21:06 48.6 °F 46 °F 29.6 in WNW 8.1 mph 12 mph 91% 0 in 0 W/m2
21:11 48.6 °F 46 °F 29.6 in West 8.9 mph 11 mph 91% 0 in 0 W/m2
21:16 48.6 °F 46.4 °F 29.6 in WNW 4 mph 8 mph 92% 0 in 0 W/m2
21:22 48.6 °F 46.4 °F 29.6 in West 4 mph 8 mph 92% 0 in 0 W/m2
21:27 48.6 °F 46.4 °F 29.6 in WNW 6.9 mph 10 mph 92% 0 in 0 W/m2
21:32 48.6 °F 46.4 °F 29.6 in West 6 mph 8 mph 92% 0 in 0 W/m2
21:37 48.4 °F 46.2 °F 29.6 in WNW 4.9 mph 7 mph 92% 0 in 0 W/m2
21:42 48.4 °F 46.2 °F 29.6 in WSW 8.9 mph 12 mph 92% 0 in 0 W/m2
21:47 48.4 °F 46.2 °F 29.6 in WSW 4 mph 8 mph 92% 0 in 0 W/m2
21:52 48.4 °F 46.2 °F 29.6 in West 2.9 mph 9 mph 92% 0 in 0 W/m2
21:57 48.2 °F 46 °F 29.6 in SW 4 mph 11 mph 92% 0 in 0 W/m2
22:02 48.4 °F 46.2 °F 29.6 in West 6 mph 15 mph 92% 0 in 0 W/m2
22:07 48.4 °F 46.2 °F 29.6 in WNW 4.9 mph 10 mph 92% 0 in 0 W/m2
22:12 48.4 °F 46.2 °F 29.6 in WNW 2.9 mph 15 mph 92% 0 in 0 W/m2
22:17 48.4 °F 46.2 °F 29.6 in WNW 6.9 mph 8 mph 92% 0 in 0 W/m2
22:22 48.4 °F 46.2 °F 29.6 in WSW 8.1 mph 11 mph 92% 0 in 0 W/m2
22:27 48.4 °F 46.2 °F 29.6 in West 8.1 mph 9 mph 92% 0 in 0 W/m2
22:32 48.4 °F 46.2 °F 29.6 in WNW 8.1 mph 12 mph 92% 0 in 0 W/m2
22:37 48.4 °F 46.2 °F 29.6 in West 6 mph 12 mph 92% 0 in 0 W/m2
22:42 48.4 °F 46.2 °F 29.6 in WNW 4 mph 10 mph 92% 0 in 0 W/m2
22:47 48.6 °F 46.6 °F 29.6 in WNW 4.9 mph 10 mph 93% 0 in 0 W/m2
22:52 48.6 °F 46.6 °F 29.6 in SW 4 mph 11 mph 93% 0 in 0 W/m2
22:57 48.6 °F 46.4 °F 29.6 in West 6 mph 12 mph 92% 0 in 0 W/m2
23:02 48.6 °F 46.6 °F 29.6 in West 6 mph 13 mph 93% 0 in 0 W/m2
23:07 48.6 °F 46.6 °F 29.6 in WSW 4.9 mph 8 mph 93% 0 in 0 W/m2
23:12 48.6 °F 46.6 °F 29.6 in West 2.9 mph 7 mph 93% 0 in 0 W/m2
23:17 48.6 °F 46.6 °F 29.6 in WSW 4 mph 10 mph 93% 0 in 0 W/m2
23:22 48.6 °F 46.6 °F 29.6 in WNW 4 mph 12 mph 93% 0 in 0 W/m2
23:27 48.6 °F 46.6 °F 29.6 in WNW 2.9 mph 10 mph 93% 0 in 0 W/m2
23:32 48.6 °F 46.6 °F 29.6 in West 6 mph 12 mph 93% 0 in 0 W/m2
23:37 48.7 °F 46.8 °F 29.6 in SW 10.1 mph 10 mph 93% 0 in 0 W/m2
23:42 48.7 °F 46.8 °F 29.6 in SW 4 mph 7 mph 93% 0 in 0 W/m2
23:48 48.7 °F 46.8 °F 29.6 in WSW 4 mph 7 mph 93% 0 in 0 W/m2
23:53 48.7 °F 46.8 °F 29.6 in West 6 mph 8 mph 93% 0 in 0 W/m2
23:58 48.7 °F 46.8 °F 29.6 in WNW 0.9 mph 8 mph 93% 0 in 0 W/m2
Juneau County Weather
Compliments of Weather Underground - 4 mb